Find Starlink 5191

NORAD ID: 54763 Int'l Des: 2022-175 Owner: SPXS Country: US Constellation: starlink operational
LEOCIRCULAR

現在のビュー

3D地球を読み込み中...

About Starlink 5191

Starlink 5191 (NORAD 54763) is a starlink constellation satellite (v1.5) launched Dec 17, 2022 by SPXS of US. It operates in LEO, CIRCULAR orbit with a mass of 305.00 kg.

Starlink 5191について

説明を読み込み中...

次回通過

Passes for default location (London). Set your location on the main map for personalized predictions.

高度履歴

Loading altitude history...

軌道要素

1 54763U 22175F 26170.67795587 .00000118 00000-0 25496-4 0 9992
2 54763 53.1613 306.3146 0001095 85.3653 274.7464 15.08831837195311
Epoch: Jun 19, 2026 • Age: 21 hours

現在のステータス

高度 542.8 km
速度 7.60 km/s
衛星直下点 40.07°N, 125.16°W
打ち上げ日 Dec 17, 2022
運用期間 3.5 years
タイプ internet

技術仕様

分類 Payload
質量 305.00 kg
乾燥質量 290.00 kg
総質量 305.00 kg
長さ 0.20 m
直径 2.80 m
スパン 9.00 m
形状 Box + pan
製造者 SPXS
バスタイプ Starlink
フェーズステータス In Orbit
所有者/国 SPXS/US

Most Searched